Regional Weather Roundup
Issued by NWS

Home | Current Version | Previous Version | Text Only | Print | Product List | Glossary On
Versions: 1 2 3 4 5 6 7 8 9 10 11 12 13 14 15 16 17 18 19 20 21 22 23 24 25 26 27 28 29 30 31 32 33 34 35 36 37 38 39 40 41 42 43 44 45 46 47 48 49 50
000
ASCA44 KEWX 271720
RWRMX

LATIN AMERICA AND CARIBBEAN REGIONAL WEATHER ROUNDUP
NATIONAL WEATHER SERVICE AUSTIN/SAN ANTONIO TX
1200 PM CDT FRI MAR 27 2015

NOTE: "FAIR" INDICATED FEW OR NO CLOUDS BELOW 12,000 FEET WITH NO
SIGNIFICANT WEATHER AND/OR OBSTRUCTIONS TO VISIBILITY.

BAJA CALIFORNIA

CITY           SKY/WX    TMP DP  RH WIND       PRES   REMARKS
LORETO         SUNNY     81  57  44 E9        29.98R
LA PAZ         SUNNY     81  46  30 NW7       30.02F
MEXICALI       SUNNY     75  19  12 NW5       30.07R
S.J. DEL CABO  SUNNY     84  45  24 CALM      30.02S
TIJUANA        SUNNY     79  23  12 CALM      30.11R

NORTHWESTERN MEXICO

CITY           SKY/WX    TMP DP  RH WIND       PRES   REMARKS
CULIACAN       MOSUNNY   81  68  65 SE6       29.97F
DURANGO        PTSUNNY   63  36  36 NE7       30.39F
GUAYMAS        SUNNY     86  46  25 CALM      29.94R
HERMOSILLO     SUNNY     90  30  12 N9        30.04R
CD. JUAREZ     SUNNY     66  36  32 W12       30.22R
LOS MOCHIS     SUNNY     79  61  53 CALM      29.99S
OBREGON        SUNNY     81  50  34 CALM      29.96S

NORTHEASTERN MEXICO

CITY           SKY/WX    TMP DP  RH WIND       PRES   REMARKS
CHIHUAHUA      SUNNY     64  32  29 CALM      30.34F
MATAMOROS      CLOUDY    70  48  46 NW9       30.28R
MONCLOVA         N/A    N/A N/A N/A MISG        N/A
MONTERREY      PTSUNNY   70  39  32 E6        30.28F
NUEVO LAREDO   SUNNY     70  39  32 CALM      30.27S
PIEDRAS NEGRAS SUNNY     72  43  35 SW8       30.26S
REYNOSA        MOSUNNY   68  34  28 W6        30.27S
SALTILLO       PTSUNNY   61  46  59 CALM      30.37S
TORREON        MOSUNNY   66  43  42 CALM      30.34S
CD. VICTORIA   PTSUNNY   68  46  45 NE5       30.29S

WESTERN MEXICO

CITY           SKY/WX    TMP DP  RH WIND       PRES   REMARKS
AGUASCALIENTES PTSUNNY   63  45  51 NE15      30.35S
COLIMA         PTSUNNY   79  55  44 CALM      30.07S
DEL BAJIO      CLOUDY    70  50  49 CALM      30.37S
GUADALAJARA    PTSUNNY   70  45  40 N6        30.26S
MANZANILLO     PTSUNNY   79  66  65 SW7       29.93S
MAZATLAN       PTSUNNY   75  64  69 S7        29.97S
P. VALLARTA    CLOUDY    79  68  69 W6        29.97S
URUAPAN        PTSUNNY   73  55  53 S7        30.22F
ZACATECAS      PTSUNNY   61  45  55 E9        30.39S

CENTRAL MEXICO

CITY           SKY/WX    TMP DP  RH WIND       PRES   REMARKS
CUERNAVACA     PTSUNNY   77  50  38 CALM      30.20F
MEXICO CITY    PTSUNNY   63  46  55 SW3       30.41F
MORELIA        PTSUNNY   70  50  49 N7        30.30F
POZA RICA      CLOUDY    64  63  94 N9        30.31R
PUEBLA         PTSUNNY   63  48  59 NE8       30.40S
QUERETARO      CLOUDY    61  50  67 E17       30.41S
S. LUIS POTOSI CLOUDY    59  46  63 E17       30.37R
TAMPICO        CLOUDY    64  57  77 SW6       30.29S
TOLUCA         PTSUNNY   68  48  49 CALM      30.46S

SOUTHERN MEXICO

CITY           SKY/WX    TMP DP  RH WIND       PRES   REMARKS
ACAPULCO       SUNNY     82  73  74 SW9       29.95S
B. DE HUATULCO MOSUNNY   84  79  84 E9        30.01S HX  96
OAXACA         MOSUNNY   75  52  43 SE9       30.28F
P. ESCONDIDO   SUNNY     81  73  78 SW9       30.09F
VERACRUZ       CLOUDY    72  52  49 N23G35    30.14R BLWGSAND
ZIHUATANEJO    PTSUNNY   84  70  61 SW6       29.97S

YUCATAN PENINSULA

CITY           SKY/WX    TMP DP  RH WIND       PRES   REMARKS
CAMPECHE       PTSUNNY   82  73  74 NW5       29.99R
CANCUN         PTSUNNY   84  75  74 SE16      29.98S HX  92
CHETUMAL       PTSUNNY   86  75  70 CALM      29.96R HX  95
CD. DEL CARMEN RAIN      79  73  83 N16       30.01F
COZUMEL        RAIN      84  73  70 W7G21     30.00R HX  91
MERIDA         PTSUNNY   90  70  51 NW12      30.00S HX  95
MINATITLAN     RAIN      72  72 100 NW21      30.07R
TAPACHULA      MOSUNNY   86  75  70 W14       29.95F HX  95
TUX. GUTIERREZ PTSUNNY   82  63  51 NW10      30.05F
VILLAHERMOSA   DRIZZLE   75  73  94 SW8       30.09R HAZE

CENTRAL AMERICA

CITY           SKY/WX    TMP DP  RH WIND       PRES   REMARKS
BELIZE CITY    MOSUNNY   88  77  70 NE8       29.95S HX 100
MANAGUA        MOSUNNY   88  64  45 SE9       29.92S

CARIBBEAN

CITY           SKY/WX    TMP DP  RH WIND       PRES   REMARKS
ARUBA          MOSUNNY   88  75  66 E23       29.92F HX  97
CURACAO        MOSUNNY   86  72  62 E17       29.97F HX  92
KINGSTON       MOSUNNY   86  73  66 SE25      29.97F HX  93
NASSAU         MOSUNNY   82  72  69 S15       29.99F
SAN JUAN       MOSUNNY   86  70  58 E17G23    30.06F HX  90
SANTO DOMINGO  MOSUNNY   86  72  62 SE12      30.03F HX  92
ST. KITTS      MOSUNNY   86  68  54 E15       30.06F
ST. MAARTEN    MOSUNNY   82  68  61 E15       30.06F
ST. THOMAS     SUNNY     84  70  61 SE18G24   30.08

$$




USA.gov is the U.S. government's official web portal to all federal, state and local government web resources and services.